Location: San Gennaro Vesuviano
(40.8833°N, 14.5333°E)
Time: 22:22:55
(UTC+00:00)

SeaSat 1 - Pass Details

Date: 22 April 2021
Orbit: 744 x 747 km, 108.0° (Epoch: 10 May)

Event Time Altitude Azimuth Distance (km) Brightness Sun altitude
Rises 21:47:04 0° 25° (NNE) 3,200 6.3 -34.0°
Reaches altitude 10° 21:49:20 10° 25° (NNE) 2,272 5.4 -34.1°
Enters shadow 21:51:18 25° 25° (NNE) 1,499 4.3 -34.3°
